HULIANWANG DIGUI-160

导读 | 豆包AI

HULIANWANG DIGUI-160(NORAD编号68134)是一颗近地轨道卫星,隶属于低轨互联网卫星星座系统,旨在提供全球宽带互联网覆盖服务。该卫星运行在距离地面数百公里的近地轨道,通过星间链路与星座中其他卫星协同组网,为偏远地区、海洋空域等传统网络覆盖盲区提供高速网络连接。 作为商业航天领域卫星互联网建设的组成部分,它延续了星座批量部署的设计思路,在技术上采用模块化设计降低制造成本,支持多用户并发接入,助力缩小全球数字鸿沟,推动天地一体化信息网络构建,目前处于在轨运行状态,承担相应的通信测试或服务任务。

基本信息
目录编号:
68134
目录名称:
HULIANWANG DIGUI-160
国际标识:
2026-047F
轨道中心:
EARTH
卫星名称:
HULIANWANG DIGUI-160
卫星全名:
HULIANWANG DIGUI-160
卫星状态:
在轨 (已飞行34 天)
发射日期:
2026-03-12 UTC
国别 :
中国 (CN)
星等 :
--
轨道信息
数据来源 国际轨道数据
星历时间: 2026-04-15T00:29:11+0800
14小时前
查看轨道信息
半长轴: 7387.372km
偏心率: 0.0000365
轨道倾角: 50.007°
近地点辐角 177.155°
升交点赤经 286.543°
平近点角 182.934°
近地点: 1008.965km
远地点: 1009.505km
周期: 105.316分钟
每日圈数: 13.673126
详细信息
使用方式:
暂无
2D轨道图
3D轨道图
轨道高度分析图
轨道倾角分析图
轨道综合分析图
查看轨道综合分析图